EW8016 Weather Reports


time (UTC)temp
F
wind
direction
speed
knots
gust
knots
rain 1hr
in
rain 24hr
in
rain mn
in
humidity
%
barometer
mb
20260507024505 42 351 0.9 2.6 0.00 0.06 0.00 93 1013.4
20260507024003 42 354 0.9 4.3 0.00 0.06 0.00 93 1013.3
20260507023504 42 349 0.0 4.3 0.00 0.06 0.00 92 1013.2
20260507023003 42 0 0.0 0.0 0.00 0.06 0.00 92 1013.3
20260507022505 42 0 0.0 0.0 0.00 0.07 0.00 92 1013.2
20260507022217 42 0 0.0 0.0 0.00 0.07 0.00 92 1013.1
20260507021719 42 0 0.0 0.0 0.00 0.07 0.00 92 1013.1
20260507021003 42 0 0.0 0.0 0.00 0.07 0.00 92 1013.0
20260507020504 42 355 0.9 2.6 0.00 0.07 0.00 92 1012.9
20260507020006 42 353 0.9 2.6 0.00 0.07 0.00 92 1013.0
20260507015505 43 350 0.9 2.6 0.00 0.07 0.00 92 1012.9
20260507015007 43 350 0.9 2.6 0.00 0.08 0.00 92 1013.0
20260507014504 43 350 0.9 3.5 0.00 0.08 0.00 92 1013.0
20260507014005 43 350 0.9 3.5 0.00 0.08 0.00 92 1013.0
20260507013718 43 346 0.9 3.5 0.00 0.08 0.00 92 1012.9
20260507013004 43 355 1.7 3.5 0.00 0.08 0.00 92 1012.9
20260507012505 43 351 1.7 3.5 0.00 0.08 0.00 91 1012.9
20260507012004 44 340 0.9 3.5 0.00 0.08 0.00 91 1012.9
20260507011503 44 336 0.9 3.5 0.00 0.08 0.00 91 1012.8
20260507011003 44 340 0.9 3.5 0.00 0.09 0.00 91 1012.7
20260507010506 44 346 0.9 3.5 0.00 0.09 0.00 91 1012.8
20260507010003 44 350 0.9 3.5 0.00 0.09 0.00 91 1012.7
20260507005505 44 350 0.9 3.5 0.00 0.09 0.00 91 1012.6
20260507005005 44 350 0.9 2.6 0.00 0.09 0.00 90 1012.6
20260507004504 44 349 0.9 3.5 0.00 0.09 0.00 90 1012.7
20260507004003 44 349 1.7 5.2 0.00 0.09 0.00 90 1012.6
20260507003505 44 358 1.7 5.2 0.00 0.09 0.00 90 1012.5
20260507003003 45 359 1.7 3.5 0.00 0.09 0.00 90 1012.5
20260507002503 45 349 1.7 4.3 0.00 0.09 0.00 89 1012.4
20260507002005 45 348 1.7 5.2 0.00 0.09 0.00 89 1012.5
20260507001504 45 348 1.7 5.2 0.00 0.09 0.00 89 1012.5
20260507001004 46 350 1.7 4.3 0.00 0.09 0.00 89 1012.5
20260507000505 46 356 1.7 4.3 0.00 0.09 0.00 89 1012.6
20260507000216 46 1 1.7 5.2 0.00 0.09 0.00 89 1012.6
20260506235506 46 4 2.6 7.8 0.00 0.09 0.00 88 1012.5
20260506235220 46 3 2.6 7.8 0.00 0.09 0.00 88 1012.5
20260506234719 46 360 2.6 7.8 0.00 0.09 0.00 88 1012.5
20260506234004 46 353 2.6 7.8 0.00 0.09 0.00 88 1012.5
20260506233503 47 350 2.6 7.8 0.00 0.09 0.00 87 1012.5
20260506233218 47 349 2.6 7.8 0.00 0.09 0.00 87 1012.5
20260506232719 47 347 2.6 7.8 0.00 0.09 0.00 87 1012.5
20260506232003 47 348 2.6 7.0 0.00 0.09 0.00 86 1012.6
20260506231503 47 360 1.7 4.3 0.00 0.09 0.00 86 1012.6
20260506231003 48 3 1.7 7.0 0.00 0.09 0.00 86 1012.6
20260506230505 48 354 2.6 7.0 0.00 0.09 0.00 86 1012.5
20260506230003 48 357 1.7 7.0 0.00 0.09 0.00 86 1012.5
20260506225504 48 350 1.7 4.3 0.00 0.09 0.00 86 1012.5
20260506225006 48 350 1.7 6.1 0.00 0.09 0.00 86 1012.5
20260506224503 48 2 2.6 7.0 0.00 0.09 0.00 85 1012.4
20260506224222 48 5 2.6 7.0 0.00 0.09 0.00 85 1012.4
20260506223505 49 353 1.7 7.0 0.00 0.09 0.00 85 1012.4
20260506223004 49 351 1.7 6.1 0.00 0.09 0.00 85 1012.3
20260506222717 49 354 1.7 6.1 0.00 0.09 0.00 85 1012.3
20260506222003 49 2 2.6 7.0 0.00 0.09 0.00 84 1012.4
20260506221505 49 1 2.6 7.0 0.00 0.09 0.00 84 1012.4
20260506221004 50 351 2.6 8.7 0.00 0.09 0.00 84 1012.4
20260506220505 50 347 3.5 8.7 0.00 0.09 0.00 85 1012.3
20260506220006 50 347 2.6 7.0 0.00 0.09 0.00 85 1012.3
20260506215503 50 355 1.7 4.3 0.00 0.09 0.09 85 1012.3
20260506215218 50 352 1.7 5.2 0.00 0.09 0.09 85 1012.3
20260506214717 50 345 1.7 7.0 0.00 0.09 0.09 84 1012.3
20260506214003 50 342 1.7 7.0 0.00 0.09 0.09 84 1012.3
20260506213510 50 344 0.9 3.5 0.00 0.09 0.09 84 1012.3
20260506213218 50 334 0.0 2.6 0.00 0.09 0.09 84 1012.1
20260506212504 50 333 0.0 2.6 0.00 0.09 0.09 84 1012.1
20260506212006 50 334 0.9 2.6 0.00 0.09 0.09 84 1012.0
20260506211509 50 339 0.9 2.6 0.00 0.09 0.09 84 1012.0
20260506211009 51 340 0.9 2.6 0.00 0.09 0.09 83 1012.0
20260506210718 51 334 0.9 2.6 0.00 0.09 0.09 83 1012.0
20260506210005 51 322 0.0 2.6 0.00 0.09 0.09 83 1012.1
20260506205508 51 0 0.0 0.0 0.00 0.09 0.09 83 1011.9
20260506205004 51 0 0.0 0.0 0.00 0.09 0.09 82 1011.9
20260506204504 51 0 0.0 0.0 0.00 0.09 0.09 82 1011.9
20260506204005 51 355 0.0 2.6 0.00 0.09 0.09 82 1011.9
20260506203504 51 355 0.0 2.6 0.00 0.09 0.09 82 1011.9
20260506203006 51 355 0.0 2.6 0.00 0.09 0.09 82 1011.9
20260506202505 51 355 0.0 2.6 0.00 0.09 0.09 82 1011.9
20260506202004 51 355 0.9 2.6 0.00 0.09 0.09 81 1011.8
20260506201503 51 355 0.9 2.6 0.00 0.09 0.09 82 1011.8
20260506201005 51 6 0.9 2.6 0.00 0.09 0.09 81 1011.8
20260506200504 51 16 0.9 2.6 0.00 0.09 0.09 81 1011.8
20260506200217 51 17 0.9 2.6 0.00 0.09 0.09 81 1011.8
20260506195718 51 11 0.9 1.7 0.00 0.09 0.09 80 1011.6
20260506195003 51 11 0.0 2.6 0.00 0.09 0.09 80 1011.6
20260506194503 51 12 0.9 2.6 0.00 0.09 0.09 80 1011.5
20260506194005 51 14 0.9 3.5 0.00 0.09 0.09 80 1011.4
20260506193511 51 16 0.9 3.5 0.00 0.09 0.09 80 1011.5
20260506193003 51 6 0.9 3.5 0.00 0.09 0.09 80 1011.4
20260506192718 51 2 0.9 3.5 0.00 0.09 0.09 80 1011.4
20260506192004 51 17 0.9 3.5 0.00 0.09 0.09 80 1011.3
20260506191506 52 19 0.9 4.3 0.00 0.09 0.09 80 1011.2
20260506191003 52 9 0.9 4.3 0.00 0.09 0.09 80 1011.1
20260506190718 52 0 0.0 0.0 0.00 0.09 0.09 80 1011.2
20260506190006 52 5 0.0 1.7 0.00 0.09 0.09 79 1011.1
20260506185503 52 5 0.0 3.5 0.00 0.09 0.09 79 1011.0
20260506185216 52 11 0.0 3.5 0.00 0.09 0.09 79 1011.0
20260506184719 52 32 0.9 3.5 0.00 0.09 0.09 79 1010.9
20260506184008 52 10 0.9 3.5 0.00 0.09 0.09 79 1010.8
20260506183503 52 356 0.0 2.6 0.00 0.09 0.09 78 1010.7
20260506183011 52 18 0.9 3.5 0.00 0.09 0.09 78 1010.7
20260506182503 52 41 0.9 3.5 0.00 0.09 0.09 78 1010.6
20260506182003 52 51 0.0 1.7 0.00 0.09 0.09 78 1010.6
20260506181504 52 51 0.9 1.7 0.00 0.09 0.09 77 1010.5
20260506181004 52 53 0.9 4.3 0.00 0.09 0.09 77 1010.4
20260506180505 52 43 1.7 5.2 0.00 0.09 0.09 76 1010.4
20260506180006 53 38 1.7 5.2 0.00 0.09 0.09 76 1010.3
20260506175504 53 45 1.7 4.3 0.00 0.09 0.09 76 1010.2
20260506175003 53 35 1.7 4.3 0.00 0.09 0.09 76 1010.2
20260506174504 53 28 1.7 5.2 0.00 0.09 0.09 76 1010.0
20260506174004 53 38 1.7 5.2 0.00 0.09 0.09 76 1010.1
20260506173503 53 45 1.7 7.0 0.00 0.09 0.09 75 1010.0
20260506173003 53 44 2.6 7.0 0.00 0.09 0.09 75 1010.0
20260506172503 53 42 1.7 7.0 0.00 0.09 0.09 75 1009.9
20260506172005 53 39 1.7 7.8 0.00 0.09 0.09 74 1009.9
20260506171504 54 45 1.7 7.8 0.00 0.09 0.09 74 1009.8
20260506171005 54 41 2.6 7.8 0.00 0.09 0.09 75 1009.8
20260506170506 54 39 2.6 7.8 0.00 0.09 0.09 74 1009.8
20260506170004 53 42 2.6 6.1 0.00 0.09 0.09 75 1009.9
20260506165503 53 40 2.6 6.1 0.00 0.09 0.09 75 1009.9
20260506165005 53 44 2.6 7.0 0.00 0.09 0.09 76 1009.9
20260506164505 53 42 1.7 7.0 0.00 0.09 0.09 76 1009.8
20260506164005 53 43 1.7 5.2 0.00 0.09 0.09 77 1009.8
20260506163505 53 47 2.6 7.0 0.00 0.09 0.09 76 1009.9
20260506163006 53 50 2.6 8.7 0.00 0.09 0.09 76 1009.8
20260506162505 52 51 3.5 13.9 0.00 0.09 0.09 77 1009.7
20260506162003 52 53 3.5 13.9 0.00 0.09 0.09 76 1009.7
20260506161503 53 46 3.5 10.4 0.00 0.09 0.09 76 1009.8
20260506161005 53 41 2.6 8.7 0.00 0.09 0.09 76 1009.7
20260506160503 52 54 3.5 12.2 0.00 0.09 0.09 77 1009.7
20260506160005 52 64 5.2 12.2 0.00 0.09 0.09 76 1009.7
20260506155503 52 70 4.3 10.4 0.00 0.09 0.09 77 1009.6
20260506155003 53 55 4.3 12.2 0.00 0.09 0.09 78 1009.7
20260506154503 53 46 4.3 12.2 0.00 0.09 0.09 77 1009.8
20260506154003 53 49 5.2 15.6 0.00 0.09 0.09 77 1009.7
20260506153720 53 50 5.2 15.6 0.00 0.09 0.09 76 1009.7
20260506153217 53 47 5.2 15.6 0.00 0.09 0.09 77 1009.7
20260506152504 52 45 4.3 11.3 0.00 0.09 0.09 78 1009.7
20260506152217 52 46 4.3 11.3 0.00 0.09 0.09 78 1009.6
20260506151507 52 39 5.2 12.2 0.00 0.09 0.09 78 1009.7
20260506151003 52 37 5.2 13.0 0.00 0.09 0.09 78 1009.7
20260506150722 53 36 5.2 13.0 0.00 0.09 0.09 78 1009.7
20260506150221 53 33 5.2 13.0 0.00 0.09 0.09 78 1009.6
20260506145503 53 36 5.2 13.0 0.00 0.09 0.09 78 1009.6
20260506145004 53 34 4.3 12.2 0.00 0.09 0.09 80 1009.4
20260506144722 53 42 3.5 9.6 0.00 0.09 0.09 82 1009.4
20260506144003 52 42 3.5 10.4 0.00 0.09 0.09 83 1009.4
20260506143508 52 38 4.3 11.3 0.00 0.09 0.09 83 1009.5
20260506143003 52 30 4.3 12.2 0.00 0.09 0.09 85 1009.5
20260506142718 52 27 4.3 12.2 0.00 0.09 0.09 85 1009.4
20260506142003 51 37 4.3 11.3 0.00 0.09 0.09 86 1009.4
20260506141718 51 42 4.3 11.3 0.00 0.09 0.09 86 1009.5
20260506141005 51 40 5.2 13.9 0.00 0.09 0.09 86 1009.5
20260506140505 51 41 3.5 10.4 0.00 0.09 0.09 88 1009.4
20260506140003 51 40 4.3 11.3 0.00 0.09 0.09 88 1009.4
20260506135503 50 39 5.2 12.2 0.00 0.09 0.09 88 1009.5
20260506135004 50 41 5.2 12.2 0.00 0.09 0.09 88 1009.4
20260506134503 50 35 4.3 12.2 0.00 0.09 0.09 88 1009.4
20260506134223 50 33 4.3 10.4 0.00 0.09 0.09 89 1009.6
20260506133504 50 38 4.3 12.2 0.00 0.09 0.09 89 1009.4
20260506133003 50 35 4.3 12.2 0.00 0.09 0.09 89 1009.4
20260506132504 50 29 5.2 15.6 0.00 0.09 0.09 89 1009.5
20260506132003 50 29 5.2 15.6 0.00 0.09 0.09 89 1009.5
20260506131506 50 33 4.3 10.4 0.00 0.09 0.09 90 1009.5
20260506131218 50 37 3.5 10.4 0.00 0.09 0.09 90 1009.4
20260506130506 50 31 3.5 10.4 0.00 0.09 0.09 90 1009.3
20260506130006 50 29 4.3 13.9 0.00 0.09 0.09 91 1009.3
20260506125503 50 32 3.5 13.9 0.01 0.09 0.09 91 1009.2
20260506125218 50 32 3.5 9.6 0.01 0.09 0.09 92 1009.1
20260506124717 50 30 4.3 9.6 0.01 0.09 0.09 92 1009.2
20260506124010 50 31 3.5 9.6 0.01 0.09 0.09 92 1009.2
20260506123506 50 35 4.3 12.2 0.01 0.09 0.09 92 1009.2
20260506123218 50 36 3.5 12.2 0.01 0.09 0.09 92 1009.1
20260506122503 49 30 3.5 9.6 0.01 0.09 0.09 92 1009.1
20260506122222 49 33 3.5 10.4 0.01 0.09 0.09 92 1009.1
20260506121503 49 32 5.2 13.0 0.02 0.09 0.09 91 1009.1
20260506121006 49 32 4.3 13.0 0.02 0.09 0.09 91 1009.1
20260506120503 49 24 2.6 8.7 0.02 0.09 0.09 92 1009.2
20260506120218 49 19 3.5 8.7 0.02 0.09 0.09 92 1009.1
20260506115719 49 12 2.6 8.7 0.01 0.09 0.09 91 1009.1
20260506115003 49 26 3.5 9.6 0.01 0.09 0.09 91 1009.1
20260506114503 49 27 3.5 9.6 0.01 0.09 0.09 91 1009.0
20260506114005 49 27 3.5 8.7 0.01 0.09 0.09 92 1008.9
20260506113505 49 35 3.5 12.2 0.01 0.09 0.09 91 1008.9
20260506113003 49 34 3.5 12.2 0.01 0.09 0.09 91 1008.9
20260506112504 50 21 3.5 10.4 0.02 0.09 0.09 92 1008.9
20260506112010 50 15 3.5 9.6 0.02 0.09 0.09 91 1008.8
20260506111510 50 18 3.5 10.4 0.01 0.08 0.08 91 1008.8
20260506111003 50 15 2.6 10.4 0.01 0.08 0.08 91 1008.8
20260506110505 50 15 2.6 8.7 0.01 0.08 0.08 92 1008.7
20260506110003 50 18 3.5 10.4 0.01 0.08 0.08 92 1008.8
20260506105507 50 20 3.5 10.4 0.01 0.08 0.08 91 1008.7
20260506105003 50 24 3.5 9.6 0.01 0.08 0.08 91 1008.8
20260506104718 50 27 3.5 9.6 0.01 0.08 0.08 91 1008.7
20260506104003 50 30 3.5 9.6 0.02 0.08 0.08 92 1008.7
20260506103510 50 19 3.5 10.4 0.02 0.08 0.08 91 1008.7
20260506103003 50 17 3.5 10.4 0.02 0.08 0.08 91 1008.6
20260506102505 50 21 3.5 10.4 0.01 0.07 0.07 92 1008.5
20260506102008 50 16 3.5 10.4 0.01 0.07 0.07 92 1008.5
20260506101503 50 24 3.5 8.7 0.01 0.07 0.07 92 1008.5
20260506101004 50 39 3.5 11.3 0.01 0.07 0.07 92 1008.5
20260506100507 50 32 4.3 11.3 0.01 0.07 0.07 92 1008.4
20260506100006 50 30 3.5 10.4 0.01 0.07 0.07 92 1008.3
20260506095505 50 31 3.5 10.4 0.01 0.07 0.07 92 1008.3
20260506095003 50 23 2.6 10.4 0.01 0.07 0.07 92 1008.3
20260506094503 50 22 1.7 7.0 0.01 0.07 0.07 92 1008.4
20260506094005 50 23 2.6 7.8 0.00 0.06 0.06 92 1008.3
20260506093504 49 27 3.5 10.4 0.00 0.06 0.06 92 1008.3
20260506093005 49 29 4.3 10.4 0.00 0.06 0.06 92 1008.3
20260506092505 49 30 4.3 12.2 0.00 0.06 0.06 92 1008.3
20260506092011 49 29 4.3 12.2 0.00 0.06 0.06 92 1008.3
20260506091506 49 21 3.5 9.6 0.01 0.06 0.06 92 1008.2
20260506091005 49 27 3.5 10.4 0.01 0.06 0.06 92 1008.2
20260506090503 49 35 4.3 13.0 0.01 0.06 0.06 92 1008.1
20260506090003 49 37 3.5 13.0 0.01 0.06 0.06 93 1008.1
20260506085718 49 35 4.3 13.0 0.01 0.06 0.06 92 1008.1
20260506085003 49 24 4.3 11.3 0.01 0.06 0.06 93 1008.1
20260506084504 49 28 3.5 11.3 0.01 0.06 0.06 93 1008.0
20260506084005 49 22 2.6 7.8 0.01 0.06 0.06 93 1008.1
20260506083506 49 17 1.7 7.8 0.01 0.06 0.06 94 1008.1
20260506083003 49 32 2.6 7.0 0.01 0.06 0.06 94 1008.1
20260506082720 48 23 2.6 7.8 0.01 0.06 0.06 94 1008.0
20260506082003 48 15 3.5 9.6 0.01 0.06 0.06 94 1008.1
20260506081503 48 27 3.5 9.6 0.00 0.06 0.06 93 1008.1
20260506081006 48 28 2.6 8.7 0.00 0.06 0.06 94 1008.0
20260506080720 48 28 3.5 8.7 0.00 0.06 0.06 94 1008.1
20260506073504 48 32 3.5 8.7 0.01 0.06 0.06 94 1007.8
20260506073003 48 37 2.6 8.7 0.01 0.07 0.06 95 1007.8
20260506072504 48 37 2.6 7.8 0.02 0.07 0.06 95 1007.8
20260506072003 48 33 2.6 9.6 0.02 0.07 0.06 95 1007.8
20260506071719 48 37 2.6 9.6 0.02 0.07 0.06 95 1007.8
20260506071005 48 37 2.6 7.0 0.02 0.08 0.06 95 1007.8
20260506070504 47 31 2.6 7.8 0.02 0.08 0.06 94 1007.8
20260506062005 48 32 3.5 9.6 0.01 0.07 0.04 94 1007.5
20260506061504 49 22 2.6 9.6 0.00 0.06 0.03 95 1007.4
20260506061222 49 19 2.6 7.0 0.00 0.06 0.03 95 1007.4
20260506060717 49 14 2.6 7.0 0.00 0.06 0.03 95 1007.4
20260506051003 48 22 2.6 7.0 0.00 0.06 0.03 95 1007.2
20260506050504 48 13 2.6 7.0 0.00 0.06 0.03 95 1007.1
20260506045003 48 23 1.7 4.3 0.00 0.06 0.03 95 1007.2
20260506044505 48 15 1.7 6.1 0.00 0.06 0.03 95 1007.3
20260506044003 48 10 0.9 6.1 0.00 0.06 0.03 95 1007.3
20260506043503 48 358 0.9 5.2 0.00 0.06 0.03 95 1007.3
20260506043005 48 359 1.7 5.2 0.00 0.06 0.03 95 1007.2
20260506042505 48 9 1.7 6.1 0.00 0.06 0.03 95 1007.2
20260506042221 48 14 1.7 6.1 0.00 0.06 0.03 95 1007.2
20260506041505 48 37 1.7 4.3 0.00 0.06 0.03 95 1007.2
20260506041003 48 26 1.7 4.3 0.00 0.06 0.03 95 1007.3
20260506040505 48 20 2.6 4.3 0.00 0.06 0.03 95 1007.3
20260506040003 48 10 1.7 7.0 0.00 0.06 0.03 95 1007.3
20260506035504 48 8 1.7 7.0 0.00 0.06 0.03 95 1007.3
20260506035003 48 15 0.9 3.5 0.00 0.06 0.03 95 1007.3
20260506034504 48 17 0.9 4.3 0.00 0.06 0.03 95 1007.4
20260506034003 48 23 0.9 4.3 0.00 0.06 0.03 95 1007.4
20260506033506 48 13 1.7 5.2 0.00 0.06 0.03 95 1007.5
20260506033003 48 9 1.7 5.2 0.00 0.06 0.03 95 1007.5
20260506032718 48 6 1.7 5.2 0.00 0.06 0.03 95 1007.5
20260506032004 48 352 1.7 5.2 0.01 0.06 0.03 95 1007.5
20260506031503 48 360 1.7 5.2 0.01 0.06 0.03 95 1007.6
20260506031007 48 5 1.7 4.3 0.01 0.06 0.03 95 1007.6
20260506030503 48 352 2.6 5.2 0.01 0.06 0.03 95 1007.6
20260506030005 48 350 2.6 5.2 0.01 0.06 0.03 95 1007.6
20260506025506 48 357 1.7 4.3 0.01 0.07 0.03 95 1007.7
20260506025005 48 354 1.7 5.2 0.02 0.07 0.03 95 1007.7